RS-44 & BREEZE-KM R/B (44909 NORAD) Tracking and Keplerian Element Data

This shows tracking and keplerian element data for the satellite.

Feedback or suggestion? Click here.




ElementValue
Catalog44909
NameRS-44 & BREEZE-KM R/B
Epoch Orbit20778
Epoch Day159.8869715
Epoch Year2024
RAAN110.9558
Inclination82.52
Eccentricity0.0218741
Argument of Perigee73.017
Mean Anonmoly289.4777
Mean Motion12.79730366
Decay Rate1.8E-07
L11 44909U 19096E 24159.88697150 .00000018 00000+0 19160-4 0 9995
L22 44909 82.5200 110.9558 0218741 73.0170 289.4777 12.79730366207787



Live tracking and technical data element details for RS-44 & BREEZE-KM R/B (NORAD 44909). RS-44 & BREEZE-KM R/B can be tracked NOW for your location showing map with azimuth and elevation plus other details from your city location.







IsCatalogInMostPopularTable: catalog: 44909, numindb: 3376
Update: records affected: 1



GetName: 44909 RS-44 & BREEZE-KM R/B

Hit Count: updated at: Tue, 17 Sep 2024 11:11:32 GMT